Lapse_Rate
6.5 6.5 6.5 6.5 6.5 6.5 6.5 6.5 6.5 6.5 6.5 6.5 6.5 6.5 6.4 6.9 7.3 7.3 7.4 7.7 7.8 7.7 7.3 6.3 6.1 5.5 5.5 5.9 6.1 5.8 6.2 6.0 5.6 5.2 4.4 3.3 3.0 2.3 1.9 1.6 2.0 0.9 -1.2 -0.5
6.5 6.5 6.5 6.5 6.5 6.5 6.5 6.5 6.5 6.5 6.5 6.5 6.6 6.8 6.8 7.0 7.2 7.2 7.4 7.6 7.7 7.7 6.9 5.7 5.5 5.8 6.0 5.6 5.3 5.4 5.7 5.7 5.5 5.7 5.6 5.2 3.7 2.0 1.3 1.1 1.5 0.3 -0.6 1.9
6.5 6.5 6.5 6.5 6.5 6.5 6.5 6.5 6.5 6.5 6.5 6.5 6.5 6.6 6.9 7.0 7.2 7.2 7.4 7.5 7.4 7.0 6.0 5.4 5.4 5.3 4.8 4.6 4.5 4.7 4.9 5.2 5.5 5.7 5.9 5.4 4.3 3.5 2.6 3.2 2.6 1.1 -0.1 2.2
6.5 6.5 6.5 6.5 6.5 6.5 6.5 6.5 6.5 6.5 6.5 6.6 6.7 7.1 6.9 7.1 6.8 7.2 7.4 7.4 5.6 4.9 4.9 4.7 4.5 4.5 4.4 4.1 4.0 3.8 3.7 4.4 4.4 4.8 5.0 4.2 4.4 4.1 3.5 3.0 2.8 2.6 1.2 0.7
6.5 6.5 6.5 6.5 6.5 6.5 6.5 6.5 6.5 6.5 6.5 6.8 7.1 6.8 6.9 7.1 7.3 6.7 5.5 5.3 5.4 5.0 4.7 4.4 4.1 4.3 4.0 3.7 4.1 3.2 3.1 3.1 3.8 3.0 3.1 3.5 3.3 3.6 3.5 2.9 2.3 1.9 1.8 2.1
6.5 6.5 6.5 6.5 6.5 6.8 6.5 6.5 6.5 6.5 6.5 6.6 6.9 6.5 6.5 6.9 7.2 6.4 5.7 5.6 5.6 5.6 5.8 6.4 5.6 5.0 4.1 5.0 5.4 4.8 3.5 2.8 2.6 3.1 1.7 1.9 2.7 2.3 2.6 2.4 2.2 1.8 1.2 1.0
6.5 6.5 6.5 6.5 6.3 6.9 6.5 6.5 6.8 6.7 6.2 6.8 6.5 5.9 5.8 6.1 6.2 6.4 6.5 6.5 6.7 6.8 6.1 6.7 6.5 5.2 4.5 4.8 5.5 4.8 4.6 3.8 2.4 1.8 1.6 0.8 1.1 1.5 1.4 1.5 1.2 1.2 1.5 1.8
6.5 6.5 6.5 6.6 6.5 6.5 6.6 6.8 6.3 6.8 6.3 6.5 6.2 6.3 6.4 6.5 6.5 6.4 6.6 6.8 8.0 7.8 7.4 6.7 5.9 5.5 5.1 5.8 5.4 4.7 3.6 3.6 3.0 2.2 1.7 0.6 -0.2 -0.2 0.1 0.1 -0.0 0.5 0.5 1.2
6.5 6.5 6.5 7.0 6.8 6.9 6.9 6.7 6.6 6.6 6.7 6.6 6.5 6.5 6.4 6.3 6.5 6.6 6.7 7.8 8.5 8.3 7.6 6.5 6.1 6.4 5.6 6.0 4.9 4.9 5.0 4.7 2.9 3.1 2.4 1.4 -0.0 -0.0 -0.2 -0.3 0.2 0.5 0.6 1.0
6.5 6.5 6.6 7.0 7.3 7.0 6.7 6.7 6.6 6.8 6.6 6.4 6.4 6.3 6.4 6.5 6.6 6.6 7.7 8.7 8.4 7.7 6.8 5.8 6.1 5.9 5.9 5.8 5.7 4.8 4.7 5.1 5.2 3.7 3.5 2.9 2.0 1.8 1.3 1.3 1.0 1.3 1.6 2.6
6.5 6.5 6.9 7.1 7.4 7.3 6.8 6.7 6.6 6.5 6.4 6.4 6.6 6.5 6.5 6.6 6.7 7.2 8.7 8.4 7.9 6.3 5.5 5.5 5.7 5.1 4.8 4.5 4.7 4.8 4.6 4.7 5.5 5.8 5.4 4.4 4.1 4.7 4.8 5.6 5.8 4.2 3.8 3.4
6.5 6.3 6.5 6.8 7.3 7.4 6.9 6.8 6.7 6.6 6.5 6.4 6.2 6.2 6.2 6.3 6.6 7.9 7.7 7.6 6.5 5.6 4.9 4.9 4.2 3.9 4.1 4.4 4.0 4.6 5.5 5.8 6.0 6.4 6.5 6.9 5.9 5.7 8.5 7.2 6.6 6.5 8.2 7.1
6.5 5.4 4.9 6.8 7.1 7.4 6.8 6.8 6.8 6.5 6.4 6.2 6.2 6.1 6.3 7.2 7.4 7.8 7.1 7.0 6.7 5.5 5.1 4.9 3.7 2.5 3.0 4.0 3.5 3.4 3.6 4.6 4.8 4.9 5.6 5.4 5.3 5.5 5.9 4.7 6.4 6.6 6.7 6.8
6.5 6.3 6.6 6.4 6.7 7.2 6.9 6.9 7.1 6.8 6.8 6.6 6.6 6.9 7.3 7.3 7.6 7.1 6.4 5.9 5.3 4.6 3.8 3.3 3.0 1.8 2.5 3.2 4.7 3.4 4.1 4.1 4.6 5.4 4.6 5.2 4.7 5.6 5.8 5.3 4.4 4.2 6.2 7.2
6.9 6.9 6.2 6.6 7.0 7.1 7.2 7.2 7.1 6.9 6.9 6.9 7.4 7.6 7.3 6.7 5.4 5.0 5.8 4.7 3.8 2.7 2.1 2.0 1.9 1.0 1.2 1.9 4.3 4.5 6.4 5.5 4.5 4.0 4.9 5.2 5.9 5.9 6.2 6.3 4.9 4.4 4.8 4.7
7.3 6.6 6.9 6.9 7.3 7.5 7.5 7.5 7.2 6.8 6.4 5.7 5.7 6.0 5.5 5.1 4.4 4.0 3.6 3.5 2.1 0.6 0.5 -1.5 -0.2 -0.3 0.8 1.5 3.8 5.8 4.8 4.9 4.9 5.0 4.9 6.1 6.4 6.6 6.7 6.6 6.1 5.0 5.1 4.0
6.9 7.1 7.2 6.9 6.8 7.1 7.3 6.8 6.3 6.7 6.6 6.7 6.7 6.8 5.8 4.9 3.9 3.1 2.0 1.4 -0.4 -1.2 -1.8 -1.4 -0.9 -0.2 0.3 0.8 2.4 3.9 4.2 5.2 3.8 5.4 5.8 6.2 6.2 6.4 6.6 5.7 5.8 6.2 4.6 1.5
7.0 6.5 6.6 6.8 6.6 6.5 6.5 6.4 6.4 6.8 6.6 5.1 4.0 3.9 3.2 2.5 1.5 0.7 -0.2 -2.1 -2.1 -1.8 -2.1 -1.6 -1.4 0.2 1.1 2.0 3.8 5.3 5.2 5.9 6.6 6.5 6.8 5.7 6.5 7.0 5.9 5.6 6.0 5.5 4.4 5.0
7.7 6.8 6.2 6.3 6.4 6.2 6.3 5.3 4.2 3.9 3.6 3.6 2.9 1.7 1.0 0.7 0.3 -0.5 -1.3 -0.4 -2.0 -0.5 0.5 -0.7 3.8 2.8 3.6 4.4 3.5 5.1 5.4 5.4 6.5 7.2 6.6 5.6 5.0 5.5 4.8 4.3 3.7 2.9 3.4 4.1
6.1 5.6 5.7 5.4 5.0 3.7 3.0 2.7 2.7 2.7 2.6 2.5 2.2 1.5 1.0 0.2 -0.1 0.6 1.1 1.5 1.2 1.3 2.0 3.8 4.3 4.2 4.1 4.5 2.8 6.1 5.6 5.1 6.7 6.0 4.8 5.0 3.7 3.7 4.0 4.5 5.2 4.1 2.7 3.1
4.1 4.0 3.6 3.2 3.0 2.9 2.6 2.5 2.6 2.4 2.2 2.2 1.4 0.7 1.0 0.0 0.6 2.2 2.5 3.4 2.2 2.7 4.4 3.5 3.6 3.5 4.3 2.8 5.0 3.7 4.3 4.1 4.6 4.9 3.9 3.4 2.6 4.0 4.0 4.0 5.7 5.9 6.3 5.3
3.9 3.5 3.3 3.2 3.0 2.8 2.9 2.9 3.0 2.6 2.5 2.0 1.4 1.1 1.0 1.5 0.5 1.5 0.4 4.0 4.3 1.7 4.5 4.4 3.7 1.2 2.7 2.5 6.1 4.8 5.0 4.6 4.7 5.4 5.5 4.7 4.5 5.4 6.0 5.7 5.3 6.3 6.0 6.5
3.4 3.3 3.0 3.1 3.2 2.9 2.7 2.8 2.7 2.8 2.5 2.1 1.6 1.3 2.9 4.9 5.4 4.7 4.4 5.6 5.2 4.0 4.3 1.7 1.8 2.0 2.2 4.2 2.9 2.7 2.8 2.8 3.1 3.3 4.2 2.4 2.6 3.9 5.4 6.0 6.1 5.6 5.0 6.0
3.7 3.8 3.7 3.2 2.9 3.3 3.3 3.8 4.4 3.1 1.6 2.3 1.2 0.5 5.3 5.0 3.7 5.3 4.2 1.6 1.3 1.7 1.6 -0.4 1.7 2.7 3.2 2.1 1.3 1.6 1.7 0.8 2.0 3.1 2.3 1.5 0.6 1.2 4.4 4.7 4.8 4.6 4.4 4.8
4.7 4.5 4.1 4.4 5.0 5.0 5.1 5.4 4.9 5.0 5.1 5.8 6.8 7.1 6.0 5.6 4.5 5.1 4.1 2.8 4.2 2.8 1.8 2.4 1.6 1.3 0.3 -1.0 -0.4 0.0 -0.2 2.1 1.5 0.0 -0.9 0.0 2.5 0.9 2.0 2.5 1.2 1.9 1.5 2.9
6.4 5.4 5.5 6.4 6.1 5.5 5.6 5.4 4.8 5.2 6.0 4.9 5.4 4.7 4.6 4.7 4.5 4.2 3.4 3.2 3.3 2.4 1.9 0.2 0.9 0.4 -0.8 -0.3 -1.2 -1.1 -0.8 1.2 -1.3 -0.8 -1.8 0.5 -1.7 -0.6 1.1 0.2 0.2 1.7 2.7 4.3
6.9 5.8 6.4 6.9 6.4 6.2 5.8 5.9 5.0 6.0 5.8 5.6 5.6 5.3 5.1 4.7 4.4 4.2 3.1 3.1 1.5 1.0 0.7 0.3 0.7 0.6 -0.1 -0.5 -1.2 0.2 0.2 0.5 0.5 0.5 0.2 0.3 0.1 0.4 0.1 0.7 1.7 2.5 4.0 3.8
Wind_Speed
6 9 8 8 15 8 7 7 6 10 7 8 6 12 9 12 13 13 12 12 11 12 12 12 12 11 12 13 13 14 14 14 14 12 12 13 13 13 13 14 13 14 14 14
2 7 10 11 10 11 7 5 7 8 2 13 12 14 14 12 12 11 10 11 12 12 13 13 13 11 11 13 13 13 14 14 14 12 11 11 12 15 16 16 14 16 20 14
3 2 5 4 4 3 6 6 3 4 3 10 12 14 11 11 10 11 11 11 9 10 9 9 9 10 12 12 13 13 14 15 14 12 12 13 14 14 15 15 14 17 17 17
2 2 3 2 9 8 4 10 7 8 10 11 12 11 10 9 9 9 9 9 7 7 8 9 9 10 10 12 12 13 15 15 16 15 14 16 15 16 16 15 16 17 20 20
3 3 4 2 5 4 3 2 8 4 10 13 14 11 10 9 10 9 7 5 6 7 7 7 9 9 10 12 12 14 14 14 14 15 15 15 17 16 14 15 16 18 18 23
1 3 4 2 4 7 6 3 5 6 5 10 10 2 2 7 7 7 7 6 6 6 5 6 8 6 8 8 9 13 14 13 13 14 15 16 14 15 13 13 15 14 19 21
2 3 1 3 3 2 2 3 4 6 6 4 3 2 10 7 5 4 5 6 6 4 4 4 4 5 6 6 9 6 6 11 13 14 15 14 13 14 14 14 15 16 18 18
2 2 6 5 3 3 1 3 4 7 8 14 14 11 9 7 7 7 7 6 6 6 6 7 9 8 7 9 8 7 4 7 11 13 12 12 14 13 14 14 15 16 16 15
2 2 4 4 4 4 5 4 3 6 7 11 13 11 9 8 7 7 5 7 7 8 9 10 11 10 9 8 6 8 8 9 7 11 12 12 14 14 12 14 12 13 12 12
4 5 6 7 6 7 7 7 6 8 10 9 12 10 9 8 7 5 5 8 8 9 10 9 9 10 10 11 7 8 10 11 10 7 10 11 10 10 12 12 12 11 11 11
4 6 7 7 7 8 8 8 9 8 9 9 10 9 8 7 7 5 7 8 8 8 8 9 9 10 10 10 10 10 11 11 10 9 7 7 9 9 10 12 14 10 9 9
1 9 5 8 9 10 9 8 8 10 10 9 9 9 8 7 4 3 7 8 9 8 8 7 8 9 10 10 10 9 9 8 7 6 6 6 3 5 19 23 23 24 24 17
3 7 10 11 10 9 9 9 10 10 9 10 9 8 8 7 3 10 8 9 9 9 8 6 7 9 10 10 6 8 6 5 6 7 7 6 5 5 5 7 19 23 22 23
11 13 9 8 6 10 10 10 12 10 9 9 10 8 7 4 10 10 10 10 11 10 8 7 8 8 8 8 5 7 9 9 5 6 5 5 5 6 6 5 7 8 14 19
4 5 9 11 11 10 10 10 10 8 8 8 8 6 9 10 10 9 9 10 10 9 9 9 9 9 9 8 7 5 6 4 4 4 5 5 5 5 5 6 4 3 4 7
9 11 10 10 11 11 11 10 9 7 7 5 7 10 12 11 10 9 9 8 8 7 5 5 7 6 7 7 6 6 4 6 6 4 4 6 6 6 6 6 4 3 4 3
11 9 10 8 7 7 8 8 9 8 8 8 8 10 12 12 11 9 8 7 6 5 4 4 4 5 5 5 4 4 4 3 6 5 6 6 5 6 5 4 5 6 3 2
6 7 7 8 7 7 9 9 9 8 8 9 8 10 9 8 7 5 4 4 6 5 4 5 3 2 5 7 5 5 6 6 5 5 5 4 5 5 4 4 5 4 3 4
7 8 8 8 9 8 7 9 9 10 9 8 9 8 7 7 5 3 4 4 3 4 4 4 4 6 7 9 8 6 5 5 5 5 5 5 4 4 4 4 3 3 3 3
7 7 10 8 10 12 10 8 10 9 7 9 9 8 7 4 4 6 5 5 3 2 1 4 6 7 9 9 8 4 4 4 5 4 4 4 5 5 4 6 5 4 4 3
9 11 11 11 10 9 9 8 9 8 7 7 9 7 6 4 5 6 5 4 3 1 5 7 6 5 4 6 4 4 4 5 5 5 5 4 4 5 5 5 6 6 7 5
9 9 10 10 10 9 7 7 8 8 7 8 7 6 6 4 3 1 2 5 2 5 7 4 4 6 5 8 5 4 5 6 5 5 5 6 6 6 7 7 6 7 8 8
7 8 9 9 9 9 8 7 7 8 8 8 7 6 5 4 4 4 5 3 5 7 6 3 7 11 11 7 5 5 5 5 4 5 5 3 3 4 5 6 6 7 7 8
8 8 8 9 10 10 10 8 8 8 6 6 5 4 2 5 4 5 5 7 9 8 5 3 8 13 12 4 5 5 5 4 5 5 4 5 4 4 6 7 7 7 6 7
7 8 9 9 10 7 10 9 9 8 8 7 5 6 8 6 5 5 5 5 10 7 4 11 12 13 7 4 4 5 4 6 5 3 3 4 6 4 5 5 3 4 2 5
9 6 6 8 7 7 7 7 6 6 6 5 4 5 5 6 6 7 5 6 6 7 4 4 8 9 7 5 4 5 4 6 4 4 3 4 2 3 5 5 6 8 9 12
6 7 6 4 6 6 6 6 5 5 7 7 7 6 7 7 7 7 7 6 5 5 4 5 9 10 9 8 8 10 11 10 13 10 10 10 11 9 11 11 13 14 14 12
Wind_Direction
282 274 260 250 275 257 244 227 214 253 238 252 99 101 98 90 86 70 53 41 32 26 20 15 8 3 358 357 353 349 350 351 352 345 349 358 355 360 356 356 354 8 10 358
285 294 286 283 279 284 278 259 280 280 291 76 73 80 71 76 77 70 58 42 32 29 22 13 8 359 355 360 356 356 358 357 353 349 353 0 10 16 15 11 3 17 28 357
252 357 1 304 242 279 264 50 20 69 38 97 77 72 71 76 73 65 58 50 35 32 22 8 359 356 4 2 2 4 5 3 355 355 358 11 18 20 22 21 21 29 35 17
214 70 233 98 53 56 61 54 42 92 99 98 97 85 67 62 77 76 67 59 32 28 19 10 358 6 5 10 9 9 9 3 2 359 8 13 19 22 25 22 26 34 36 32
164 201 276 3 10 45 90 60 24 42 124 127 124 105 76 75 78 83 76 60 51 43 28 15 11 11 21 26 19 21 13 4 1 5 8 15 20 19 21 24 30 34 32 36
11 180 233 167 3 34 67 282 17 5 10 163 168 105 135 103 97 104 105 88 66 49 37 21 8 4 28 21 19 31 22 9 4 14 16 16 14 20 19 28 34 33 36 34
186 228 202 57 350 345 101 230 344 323 287 254 117 85 123 114 101 98 123 111 99 59 11 334 325 2 16 9 15 3 23 23 24 19 23 17 18 21 26 26 34 35 37 33
167 190 249 359 281 204 79 72 51 59 95 108 112 111 114 109 99 85 84 96 102 84 53 28 21 19 3 29 3 1 13 35 32 26 26 24 25 22 24 32 33 32 35 36
112 176 98 45 81 52 72 108 87 107 103 116 116 115 112 108 98 93 88 104 83 66 55 39 29 25 19 359 18 18 27 36 49 35 28 28 32 30 29 29 34 32 34 33
146 143 131 121 93 81 78 98 95 106 113 114 116 118 116 106 98 94 96 88 81 71 60 46 31 25 30 21 27 34 34 34 32 56 41 34 37 39 40 36 34 32 32 33
82 123 117 121 124 121 110 103 106 102 112 117 120 110 109 105 100 109 96 89 85 78 67 51 38 33 26 21 25 38 36 31 29 30 48 47 44 48 50 46 46 43 36 26
156 152 90 132 135 133 124 120 117 116 109 99 107 107 100 95 110 88 93 95 88 80 68 45 28 20 21 23 22 30 42 34 27 28 29 36 62 47 57 53 45 41 38 51
118 79 107 122 123 129 127 124 120 115 114 117 111 111 111 141 121 97 86 85 88 86 77 56 36 30 13 1 18 26 27 23 24 23 24 26 23 36 42 32 42 41 39 34
112 105 105 144 133 127 125 128 122 121 124 123 125 140 167 121 93 83 80 79 74 70 61 47 43 27 1 360 13 36 26 16 27 25 16 21 19 22 25 51 41 29 24 31
180 91 118 123 125 128 127 133 130 127 129 137 166 149 110 93 77 62 86 82 78 69 56 47 37 13 359 6 0 40 33 15 26 27 20 11 24 29 24 36 55 32 22 18
109 111 118 128 138 145 147 143 131 130 116 94 93 96 96 96 89 78 68 72 80 66 42 27 24 349 353 4 3 29 13 26 36 25 18 25 28 35 32 32 37 34 21 356
131 141 139 144 146 142 139 127 128 123 113 108 113 117 108 101 92 86 80 77 76 63 28 20 326 321 340 350 360 36 13 15 44 37 30 32 26 25 25 27 28 22 345 319
156 148 151 149 143 126 128 133 134 132 113 103 92 95 98 99 113 117 116 88 70 40 351 317 300 343 15 18 13 42 32 21 35 32 24 24 20 15 14 19 20 18 348 357
157 144 136 128 126 126 116 105 104 109 111 112 103 102 110 116 128 148 132 130 100 81 314 316 40 39 23 17 17 35 30 24 18 18 12 12 12 1 10 7 356 353 347 353
103 100 105 101 102 116 111 109 114 109 111 113 113 110 109 108 106 100 102 103 159 176 260 53 53 43 26 11 6 28 29 21 16 11 15 13 12 6 360 1 355 348 347 337
107 104 104 106 105 103 114 125 124 122 121 114 120 128 133 134 117 140 131 127 248 139 87 67 54 30 17 1 355 28 31 23 20 13 25 16 360 4 3 360 5 356 355 340
114 114 115 113 111 108 113 116 118 120 115 115 116 126 132 153 165 158 152 136 133 70 87 68 49 24 12 3 34 34 32 30 25 27 23 20 21 13 10 13 2 20 11 9
112 115 116 120 123 118 108 110 112 122 128 138 146 157 164 164 176 122 125 110 97 97 87 66 43 31 29 41 33 35 32 37 25 27 31 13 4 7 8 16 20 16 6 11
121 119 118 113 116 120 126 131 133 131 130 141 145 170 164 117 69 92 105 92 94 96 96 76 60 57 57 32 30 31 29 32 32 33 13 12 13 11 20 20 16 9 5 2
131 131 129 140 143 143 145 145 136 142 150 137 127 95 86 71 105 111 96 93 115 102 92 71 76 66 55 41 42 35 34 49 36 14 0 28 25 12 24 14 354 350 335 336
151 149 160 167 151 147 149 150 151 160 145 130 111 103 96 100 100 101 91 89 88 87 93 85 72 66 58 58 48 45 42 52 25 11 23 31 10 17 12 349 342 346 334 338
161 165 177 154 145 150 158 160 153 152 140 135 123 110 107 102 95 93 87 85 76 73 71 71 78 67 67 54 57 51 60 40 23 14 44 31 37 18 354 349 348 343 347 7